Location: Buttermere
(51.3333°N, 1.5167°W)
Time: 05:01:01
(UTC+00:00)

Cosmos 2082 Rocket - Pass Details

Date: 18 September 2020
Orbit: 834 x 852 km, 71.0° (Epoch: 20 October)

Event Time Altitude Azimuth Distance (km) Brightness Sun altitude
Rises 22:21:45 0° 327° (NNW) 3,394 6.4 -33.3°
Reaches altitude 10° 22:24:14 10° 324° (NW) 2,456 5.4 -33.5°
Enters shadow 22:28:05 41° 301° (WNW) 1,193 3.2 -33.8°
